Regional Weather Roundup
Issued by NWS

Home | Current Version | Previous Version | Text Only | Print | Product List | Glossary Off
Versions: 1 2 3 4 5 6 7 8 9 10 11 12 13 14 15 16 17 18 19 20 21 22 23 24 25 26 27 28 29 30 31 32 33 34 35 36 37 38 39 40 41 42 43 44 45 46 47 48 49 50

000
ASUS44 KMEG 221910
RWRTN
TENNESSEE HOURLY STATE WEATHER ROUNDUP
NATIONAL WEATHER SERVICE MEMPHIS TN
200 PM CDT TUE MAY 22 2018

TNZ002-004-019-021-049-052-054-088>092-222000-
WEST TENNESSEE

CITY           SKY/WX    TMP DP  RH WIND       PRES   REMARKS
MEMPHIS INTL   PTSUNNY   86  72  62 NW6       30.01F HX  92
NWS MEMPHIS      N/A     87 N/A N/A MISG        N/A
JACKSON        PTSUNNY   73  70  90 SE3       30.04F
DYERSBURG      FAIR      85  71  63 VRB3      30.02F HX  90
COVINGTON      PTSUNNY   84  72  65 NW6       30.02F
BOLIVAR        SUNNY     73  70  88 S5        30.04F
PARIS          PTSUNNY   82  70  65 NE3       30.02F
HUNTINGDON     MOSUNNY   81  72  74 CALM      30.01F
LEXINGTON      MOSUNNY   84  70  61 CALM      30.02F
SELMER         FOG       73  70  88 N7        30.05R VSB 3/4
SAVANNAH       MOSUNNY   82  70  65 VRB5      30.02F
$$

TNZ008-025-027-028-033-062-065-066-222000-
NORTH MIDDLE TENNESSEE

CITY           SKY/WX    TMP DP  RH WIND       PRES   REMARKS
NASHVILLE      PTSUNNY   82  66  58 NE6       30.04F
DICKSON        PTCLDY    81  70  69 VRB7G16   30.04F
PORTLAND       MOSUNNY   77  70  78 NW3       30.05F
CLARKSVILLE    FAIR      84  66  54 CALM      30.03F
SMYRNA         CLOUDY    83  68  60 CALM      30.04F
MURFREESBORO   PTCLDY    79  70  73 SW5       30.03F
COOKEVILLE     MOSUNNY   81  68  65 CALM      30.06F
LIVINGSTON     CLEAR     77  66  69 CALM      30.06F
GALLATIN       SUNNY     82  66  57 CALM      30.06F
CROSSVILLE     PTSUNNY   75  64  68 VRB5      30.11F
$$

TNZ061-075-076-078-094-096-097-222000-
SOUTH MIDDLE TENNESSEE

CITY           SKY/WX    TMP DP  RH WIND       PRES   REMARKS
LEWISBURG      CLOUDY    81  68  65 CALM      30.04F
FAYETTEVILLE   PTSUNNY   81  68  65 CALM      30.05F
TULLAHOMA      MOSUNNY   82  68  61 S6        30.05F
WINCHESTER     PTSUNNY   79  66  65 NW5       30.05F
MCMINNVILLE    PTSUNNY   81  68  65 VRB3      30.05F
COLUMBIA       PTSUNNY   82  66  57 CALM      30.02F
SHELBYVILLE    MOSUNNY   82  68  61 S6        30.04F
$$

TNZ017-018-042-046-047-222000-
NORTHEAST TENNESSEE

CITY           SKY/WX    TMP DP  RH WIND       PRES   REMARKS
TRI CITIES     FAIR      81  63  54 NW5       30.09F
ELIZABETHTON   FAIR      81  64  57 VRB6      30.09F
GREENEVILLE    MOCLDY    81  64  57 SW5       30.09F
$$

TNZ012-013-036-069-073-074-222000-
CENTRAL EAST TENNESSEE

CITY           SKY/WX    TMP DP  RH WIND       PRES   REMARKS
KNOXVILLE      PTSUNNY   79  68  69 E6        30.06F
OAK RIDGE      LGT RAIN  77  74  90 CALM      30.08F
DOWNTOWN KNOXV PTSUNNY   81  68  65 SE7       30.07F
GATLINBURG     MOSUNNY   81  66  61 N7        30.07F
MORRISTOWN     CLOUDY    79  66  65 CALM      30.08F
JACKSBORO      PTSUNNY   79  66  65 CALM      30.11F
$$

TNZ083-085-099-222000-
SOUTHEAST TENNESSEE

CITY           SKY/WX    TMP DP  RH WIND       PRES   REMARKS
CHATTANOOGA    PTSUNNY   83  64  52 S8        30.05F
DAYTON         CLEAR     82  72  69 SW7       30.05F
$$

SKY/WX REPORTED AS FAIR MEANS FEW OR NO CLOUDS BELOW
12 THOUSAND FEET.





USA.gov is the U.S. government's official web portal to all federal, state and local government web resources and services.